Location: McFarlands Corners
(41.4117°N, 81.3382°W)
Time: 07:47:33
(UTC+00:00)

Hubble Space Telescope - Pass Details

Date: 29 January 2026
Orbit: 478 x 480 km, 28.5° (Epoch: 10 February)

Event Time Altitude Azimuth Distance (km) Brightness Sun altitude
Rises 00:23:20 0° 239° (WSW) 2,513 5.4 -20.1°
Reaches altitude 10° 00:27:19 10° 198° (SSW) 1,635 3.5 -20.8°
Maximum altitude 00:28:01 10° 187° (S) 1,610 3.3 -20.9°
Drops below altitude 10° 00:28:42 10° 176° (S) 1,635 3.2 -21.1°
Enters shadow 00:29:07 - 170° (S) 1,672 3.2 -21.1°
